TimeEST,TemperatureF,Dew PointF,Humidity,Sea Level PressureIn,VisibilityMPH,Wind Direction,Wind SpeedMPH,Gust SpeedMPH,PrecipitationIn,Events,Conditions,WindDirDegrees,DateUTC
12:56 AM,30.9,16.0,54,30.00,10.0,Calm,Calm,-,N/A,,Partly Cloudy,0,2014-01-19 05:56:00
1:56 AM,32.0,16.0,52,29.99,10.0,Calm,Calm,-,N/A,,Partly Cloudy,0,2014-01-19 06:56:00
2:56 AM,33.1,16.0,50,29.97,10.0,Calm,Calm,-,N/A,,Mostly Cloudy,0,2014-01-19 07:56:00
3:56 AM,34.0,15.1,46,29.96,10.0,Variable,3.5,-,N/A,,Overcast,0,2014-01-19 08:56:00
4:56 AM,34.0,16.0,48,29.94,10.0,Calm,Calm,-,N/A,,Mostly Cloudy,0,2014-01-19 09:56:00
5:56 AM,33.1,16.0,50,29.93,10.0,Calm,Calm,-,N/A,,Overcast,0,2014-01-19 10:56:00
6:56 AM,33.1,16.0,50,29.94,10.0,SW,3.5,-,N/A,,Scattered Clouds,220,2014-01-19 11:56:00
7:56 AM,34.0,16.0,48,29.94,10.0,Variable,3.5,-,N/A,,Mostly Cloudy,0,2014-01-19 12:56:00
8:56 AM,36.0,17.1,46,29.96,10.0,Variable,4.6,-,N/A,,Clear,0,2014-01-19 13:56:00
9:56 AM,39.9,17.1,40,29.98,10.0,Variable,6.9,-,N/A,,Clear,0,2014-01-19 14:56:00
10:56 AM,44.1,18.0,35,29.97,10.0,Variable,4.6,-,N/A,,Clear,0,2014-01-19 15:56:00
11:56 AM,48.0,21.0,34,29.95,10.0,Variable,6.9,-,N/A,,Clear,0,2014-01-19 16:56:00
12:56 PM,50.0,23.0,35,29.91,10.0,WSW,8.1,-,N/A,,Clear,240,2014-01-19 17:56:00
1:56 PM,51.1,23.0,33,29.90,10.0,WSW,10.4,17.3,N/A,,Clear,250,2014-01-19 18:56:00
2:56 PM,51.1,24.1,35,29.91,10.0,West,9.2,21.9,N/A,,Partly Cloudy,270,2014-01-19 19:56:00
3:56 PM,51.1,24.1,35,29.92,10.0,West,12.7,24.2,N/A,,Clear,270,2014-01-19 20:56:00
4:56 PM,50.0,24.1,36,29.93,10.0,West,6.9,-,N/A,,Clear,280,2014-01-19 21:56:00
5:56 PM,46.9,24.1,41,29.94,10.0,Variable,3.5,-,N/A,,Clear,0,2014-01-19 22:56:00
6:56 PM,44.1,25.0,47,29.95,10.0,Calm,Calm,-,N/A,,Clear,0,2014-01-19 23:56:00
7:56 PM,41.0,25.0,53,29.95,10.0,Calm,Calm,-,N/A,,Clear,0,2014-01-20 00:56:00
8:56 PM,37.9,26.1,62,29.95,10.0,Calm,Calm,-,N/A,,Clear,0,2014-01-20 01:56:00
9:56 PM,36.0,26.1,67,29.95,10.0,Calm,Calm,-,N/A,,Clear,0,2014-01-20 02:56:00
10:56 PM,35.1,26.1,70,29.94,10.0,Calm,Calm,-,N/A,,Clear,0,2014-01-20 03:56:00
11:56 PM,33.1,24.1,70,29.92,10.0,Calm,Calm,-,N/A,,Clear,0,2014-01-20 04:56:00